Volver al catálogo

STARLINK-34303

ActivoComunicacionesSSO
NORAD 64168·PAYLOAD·🇺🇸 United States

Lanzado May 27, 2025 desde Vandenberg Space Force Base

Loading…

Próximos Pases (próximas 24 horas)

TLE

ActualizadoSource: CelesTrak SupGP

Época: Sep 14, 2026, 20:55 UTC

1 64168C 25112Y   26257.87201389 -.00014795  00000+0 -45949-3 0  2574
2 64168  97.2844 304.9944 0001656  89.9146 256.5849 15.33431578    19

Sigue STARLINK-34303 en tiempo real con AllMySat

Download on the App Store